"Pseudo-MPEC" for ZTF02s3

Created 2019 Feb 15 23:18:18 UT using Find_Orb

Click here for an explanation of pseudo-MPECs

 
 Astrometry: 
     ZTF02s3  C2019 02 10.25618809 50 33.48 +18 34 05.1    ~2ALI 17.36RUNEOCPI41
     ZTF02s3  C2019 02 10.25653509 50 40.26 +18 33 09.1    ~2ALI 17.36RUNEOCPI41
     ZTF02s3  C2019 02 10.26484209 53 26.44 +18 10 20.9    ~2ALI 16.98RUNEOCPI41
     ZTF02s3  C2019 02 10.26518909 53 33.62 +18 09 18.3    ~2ALI 16.98RUNEOCPI41

Station data:
(I41) Palomar Mountain--ZTF  (N33.357340 W116.859780)  US/California. 1.2-m
   f/2.44 Oschin Schmidt + CCD.

Orbital elements:  ZTF02s3
   Perigee 2019 Feb 10.350758 +/- 38.8 TT =  8:25:05 (JD 2458524.850758)
Epoch 2019 Feb 10.0 TT = JDT 2458524.5                        AutoNEOCP
q  2446.38050 +/- 1.57e+7           (J2000 equator)
H   34.7  G 0.15                    Peri.  278.79113 +/- 41
                                    Node     8.73677 +/- 60
e   1.0844187 +/- 0.161             Incl.   28.17529 +/- 0.9
From 4 observations 2019 Feb. 10 (13.0 min); mean residual 2".12
IMPACT at 10 Feb 2019 8:15:30.79 lat +0.94021 lon W76.95955
Residuals in arcseconds: 
190210 I41  2.6-  2.1+    190210 I41  2.5+  .31-    
190210 I41  2.7+  2.2-    190210 I41  2.5-  .42+    

Ephemerides (geocentric):
Date (UTC) HH   RA              Dec         delta   r     elong  mag " sig PA
---- -- -- --  -------------   -----------  ------ ------ -----  --- ---- ---
2019 02 15 23  00 07 54.906   -03 50 19.10  .01137 .97833  33.8 32?? 105d 174
2019 02 16 00  00 07 54.954   -03 50 16.79  .01145 .97827  33.8 32?? 105d 174
2019 02 16 01  00 07 54.989   -03 50 14.58  .01153 .97821  33.7 32?? 105d 174
2019 02 16 02  00 07 55.009   -03 50 12.47  .01161 .97815  33.7 32?? 105d 174
2019 02 16 03  00 07 55.017   -03 50 10.45  .01169 .97808  33.7 32?? 105d 174
2019 02 16 04  00 07 55.011   -03 50 08.52  .01177 .97802  33.6 32?? 105d 174
2019 02 16 05  00 07 54.991   -03 50 06.68  .01185 .97796  33.6 32?? 105d 174
2019 02 16 06  00 07 54.959   -03 50 04.93  .01193 .97789  33.5 32?? 105d 174
2019 02 16 07  00 07 54.915   -03 50 03.27  .01201 .97783  33.5 32?? 105d 174
2019 02 16 08  00 07 54.857   -03 50 01.69  .01209 .97777  33.4 32?? 105d 174
2019 02 16 09  00 07 54.788   -03 50 00.20  .01217 .97771  33.4 32?? 105d 174
2019 02 16 10  00 07 54.706   -03 49 58.79  .01225 .97764  33.4 32?? 105d 174
2019 02 16 11  00 07 54.612   -03 49 57.47  .01233 .97758  33.3 32?? 105d 174
2019 02 16 12  00 07 54.506   -03 49 56.22  .01241 .97752  33.3 32?? 105d 174
2019 02 16 13  00 07 54.389   -03 49 55.05  .01249 .97745  33.2 33?? 105d 174
2019 02 16 14  00 07 54.261   -03 49 53.96  .01257 .97739  33.2 33?? 105d 174
2019 02 16 15  00 07 54.121   -03 49 52.95  .01265 .97733  33.1 33?? 105d 174
2019 02 16 16  00 07 53.969   -03 49 52.01  .01273 .97726  33.1 33?? 105d 174
2019 02 16 17  00 07 53.807   -03 49 51.15  .01281 .97720  33.1 33?? 105d 174
2019 02 16 18  00 07 53.635   -03 49 50.36  .01289 .97714  33.0 33?? 105d 174
2019 02 16 19  00 07 53.451   -03 49 49.64  .01297 .97707  33.0 33?? 105d 174
2019 02 16 20  00 07 53.257   -03 49 48.99  .01305 .97701  32.9 33?? 105d 174
2019 02 16 21  00 07 53.052   -03 49 48.41  .01313 .97694  32.9 33?? 105d 174
2019 02 16 22  00 07 52.838   -03 49 47.90  .01321 .97688  32.9 33?? 105d 174
2019 02 16 23  00 07 52.613   -03 49 47.46  .01329 .97682  32.8 33?? 105d 174
2019 02 17 00  00 07 52.378   -03 49 47.08  .01337 .97675  32.8 33?? 105d 174
2019 02 17 01  00 07 52.133   -03 49 46.77  .01345 .97669  32.7 33?? 105d 174
2019 02 17 02  00 07 51.879   -03 49 46.52  .01353 .97663  32.7 33?? 105d 174
2019 02 17 03  00 07 51.615   -03 49 46.34  .01361 .97656  32.6 33?? 105d 174
2019 02 17 04  00 07 51.342   -03 49 46.22  .01369 .97650  32.6 33?? 105d 174
2019 02 17 05  00 07 51.059   -03 49 46.16  .01377 .97643  32.6 33?? 105d 174
2019 02 17 06  00 07 50.767   -03 49 46.16  .01385 .97637  32.5 33?? 105d 174
2019 02 17 07  00 07 50.466   -03 49 46.22  .01392 .97630  32.5 33?? 105d 174
2019 02 17 08  00 07 50.156   -03 49 46.34  .01400 .97624  32.4 33?? 105d 174
2019 02 17 09  00 07 49.837   -03 49 46.52  .01408 .97618  32.4 33?? 105d 174
2019 02 17 10  00 07 49.509   -03 49 46.75  .01416 .97611  32.3 33?? 105d 174
2019 02 17 11  00 07 49.173   -03 49 47.04  .01424 .97605  32.3 33?? 105d 174
2019 02 17 12  00 07 48.828   -03 49 47.39  .01432 .97598  32.3 33?? 105d 174
2019 02 17 13  00 07 48.475   -03 49 47.79  .01440 .97592  32.2 33?? 105d 174
2019 02 17 14  00 07 48.113   -03 49 48.24  .01448 .97585  32.2 33?? 105d 174
2019 02 17 15  00 07 47.743   -03 49 48.75  .01456 .97579  32.1 33?? 105d 174
2019 02 17 16  00 07 47.365   -03 49 49.31  .01464 .97572  32.1 33?? 105d 174
2019 02 17 17  00 07 46.979   -03 49 49.92  .01472 .97566  32.0 33?? 105d 174
2019 02 17 18  00 07 46.585   -03 49 50.59  .01480 .97559  32.0 33?? 105d 174
2019 02 17 19  00 07 46.183   -03 49 51.30  .01488 .97553  32.0 33?? 105d 174
2019 02 17 20  00 07 45.774   -03 49 52.06  .01496 .97546  31.9 33?? 105d 174
2019 02 17 21  00 07 45.356   -03 49 52.87  .01504 .97540  31.9 33?? 105d 174
2019 02 17 22  00 07 44.932   -03 49 53.73  .01512 .97533  31.8 33?? 105d 174